Regional Weather Roundup
Issued by NWS Burlington, VT

Home | Current Version | Previous Version | Text Only | Print | Product List | Glossary On
Versions: 1 2 3 4 5 6 7 8 9 10 11 12 13 14 15 16 17 18 19 20 21 22 23 24 25 26 27 28 29 30 31 32 33 34 35 36 37 38 39 40 41 42 43 44 45 46 47 48 49 50
000
ASUS41 KBTV 260910
RWRBTV
VERMONT REGIONAL WEATHER ROUNDUP
NATIONAL WEATHER SERVICE BURLINGTON VT
400 AM EST WED NOV 26 2014

NOTE: "FAIR" INDICATES FEW OR NO CLOUDS BELOW 12,000 FEET WITH NO
SIGNIFICANT WEATHER AND/OR OBSTRUCTIONS TO VISIBILITY.

* THESE REPORTS ARE NOT UNDER NWS QUALITY CONTROL AND/OR DO NOT
  REPORT WEATHER SUCH AS PRECIPITATION AND FOG.

VTZ001>019-261000-
_____VERMONT_____


CITY           SKY/WX    TMP DP  RH WIND       PRES   REMARKS
BURLINGTON     CLOUDY    37  21  52 NW7       30.22R
MONTPELIER     CLOUDY    33  21  61 NW8       30.21R
ST. JOHNSBURY*   N/A     37  21  52 MISG      30.18R
LYNDONVILLE*   FAIR      34  19  55 SW12      30.18R
MIDDLEBURY*    CLOUDY    37  28  69 CALM      30.19S
RUTLAND*       CLOUDY    37  25  60 N5        30.17S
SPRINGFIELD    CLOUDY    40  26  57 NW6       30.18R
HIGHGATE*      CLOUDY    35  22  59 SW3       30.22R
NEWPORT*       CLOUDY    33  21  60 SW12G20   30.19R
BENNINGTON     CLOUDY    37  27  67 SW5       30.18F
SUTTON*          N/A     32 N/A N/A MISG        N/A

_____LAKE CHAMPLAIN_____


CITY           SKY/WX    TMP DP  RH WIND       PRES   REMARKS
COLCHESTER RF*   N/A     39  25  56 NW10        N/A
DIAMOND ISL*     N/A     39  25  56 NW6         N/A

$$

NYZ007-026>031-035-052-083-261000-
_____NORTHERN NEW YORK_____


CITY           SKY/WX    TMP DP  RH WIND       PRES   REMARKS
PLATTSBURGH    CLOUDY    34  24  67 CALM      30.22R
SARANAC LAKE   PTSUNNY   29  23  78 W7        30.13R
MASSENA        CLOUDY    34  25  69 SW7       30.20F
OGDENSBURG*    CLOUDY    34  28  80 CALM      30.20F
POTSDAM*       CLOUDY    30  27  86 SW6       30.22R
WATERTOWN      CLOUDY    35  24  64 NW5       30.22S
FT DRUM        PTSUNNY   31  24  76 W3        30.20S
ALBANY         CLOUDY    38  26  62 W6        30.20F
GLENS FALLS    CLOUDY    36  27  69 N3        30.19S

$$
NHZ002-005-011-261000-
_____NEW HAMPSHIRE_____


CITY           SKY/WX    TMP DP  RH WIND       PRES   REMARKS
LEBANON        CLOUDY    34  29  82 CALM      30.18R
KEENE          CLOUDY    34  28  80 CALM      30.19R
MT WASHINGTON  FOG       14  14 100 W54         N/A  VSB 1/16WCI -12
PLYMOUTH       FAIR      39  32  75 W3        30.17R
WHITEFIELD     PTSUNNY   36  23  59 W7        30.17R

$$

_____REGIONAL QUEBEC LOCATIONS_____


CITY           SKY/WX    TMP DP  RH WIND       PRES   REMARKS
MONTREAL       PTSUNNY   34  18  51 W13       30.21R
QUEBEC CITY    MOSUNNY   34  25  69 SW13      30.10R
SHERBROOKE     CLOUDY    34  25  69 W10       30.16R

_____REGIONAL ONTARIO LOCATIONS_____


CITY           SKY/WX    TMP DP  RH WIND       PRES   REMARKS
OTTAWA         MOSUNNY   27  19  74 NW8       30.19S

______KEY______
VSB  - VISIBILITY IN MILES
WCI  - WIND CHILL INDEX
HX   - HEAT INDEX
$$
NNNN


USA.gov is the U.S. government's official web portal to all federal, state and local government web resources and services.